Annapolis, MD

11:35 PM EST on February 26, 2017 (GMT -0500)
Annapolis Naval Academy

Weather History for KNAK - May, 2013

Change the Weather History Date:

Friday, May 10, 2013

  Actual Average (KBWI) Record (KBWI)
Temperature  
Mean Temperature 68 °F -  
Max Temperature 78 °F 73 °F 96 °F (1896)
Min Temperature 57 °F 49 °F 33 °F (1966)
Cooling Degree Days 2    
Growing Degree Days 18 (Base 50)    
Moisture  
Dew Point 61 °F    
Average Humidity 82    
Maximum Humidity 100    
Minimum Humidity 54    
Precipitation  
Precipitation 0.00 in - - ()
Sea Level Pressure  
Sea Level Pressure 29.97 in    
Wind  
Wind Speed 5 mph (SSE)    
Max Wind Speed 13 mph    
Max Gust Speed -    
Visibility 8 miles    
Events Rain    
Averages and records for this station are not official NWS values.
T = Trace of Precipitation, MM = Missing Value Source: NWS Daily Summary

Daily Weather History Graph

Daily Weather History Graph

Search for Another Location

Airport or City:

Trip Planner

Search our weather history database for the weather conditions in past years. The results will help you decide how hot, cold, wet, or windy it might be!

Date:

Astronomy

May. 10, 2013 Rise Set
Actual Time 5:57 AM EDT 8:07 PM EDT
Civil Twilight 5:28 AM EDT 8:37 PM EDT
Nautical Twilight 4:51 AM EDT 9:13 PM EDT
Astronomical Twilight 4:12 AM EDT 9:53 PM EDT
Moon 6:20 AM EDT (5/10) 8:54 PM EDT (5/10)
Length of Visible Light 15h 09m
Length of Day
14h 09m
New Moon, 0% of the Moon is Illuminated
May 10
New Moon
May 18
First Quarter
May 25
Full
May 31
Last Quarter
Jun 8
New

Hourly Weather History & Observations

Time (EDT) Temp. Dew Point Humidity Pressure Visibility Wind Dir Wind Speed Gust Speed Precip Events Conditions
12:54 AM 62.1 °F 61.0 °F 96% 30.01 in 10.0 mi NNW 3.5 mph - N/A   Clear
1:54 AM 61.0 °F 60.1 °F 97% 30.00 in 10.0 mi NNW 3.5 mph - N/A   Scattered Clouds
2:54 AM 60.1 °F 59.0 °F 96% 30.00 in 8.0 mi Calm Calm - N/A   Clear
3:54 AM 59.0 °F 57.9 °F 96% 30.00 in 7.0 mi Calm Calm - N/A   Clear
4:54 AM 59.0 °F 59.0 °F 100% 30.00 in 5.0 mi Calm Calm - N/A   Clear
5:54 AM 57.0 °F 57.0 °F 100% 30.00 in 3.0 mi Calm Calm - N/A   Clear
6:54 AM 59.0 °F 59.0 °F 100% 30.02 in 5.0 mi Calm Calm - N/A   Clear
7:54 AM 63.0 °F 61.0 °F 93% 30.02 in 6.0 mi Calm Calm - N/A   Clear
8:54 AM 66.0 °F 62.1 °F 87% 30.03 in 7.0 mi Calm Calm - N/A   Clear
9:54 AM 66.0 °F 61.0 °F 84% 30.02 in 10.0 mi SE 8.1 mph - N/A   Clear
10:54 AM 66.9 °F 60.1 °F 79% 30.02 in 10.0 mi SE 9.2 mph - N/A   Clear
11:54 AM 68.0 °F 60.1 °F 76% 30.01 in 10.0 mi SE 12.7 mph - N/A   Clear
12:54 PM 69.1 °F 63.0 °F 81% 29.99 in 10.0 mi ESE 10.4 mph - N/A   Clear
1:54 PM 70.0 °F 61.0 °F 73% 29.98 in 10.0 mi SE 12.7 mph - N/A   Clear
2:54 PM 73.9 °F 60.1 °F 62% 29.96 in 10.0 mi SSE 10.4 mph - N/A   Clear
3:54 PM 75.0 °F 62.1 °F 64% 29.94 in 10.0 mi SE 10.4 mph - N/A   Clear
4:54 PM 78.1 °F 60.1 °F 54% 29.93 in 10.0 mi South 12.7 mph - N/A   Clear
5:54 PM 73.9 °F 61.0 °F 64% 29.92 in 10.0 mi South 10.4 mph - N/A   Clear
6:54 PM 73.9 °F 60.1 °F 62% 29.90 in 10.0 mi South 9.2 mph - N/A   Clear
7:54 PM 71.1 °F 61.0 °F 70% 29.88 in 10.0 mi South 8.1 mph - N/A   Clear
8:54 PM 71.1 °F 62.1 °F 73% 29.90 in 10.0 mi SSE 11.5 mph - N/A   Clear
9:54 PM 69.1 °F 63.0 °F 81% 29.90 in 10.0 mi South 9.2 mph - N/A   Mostly Cloudy
10:54 PM 68.0 °F 62.1 °F 81% 29.92 in 10.0 mi NNW 9.2 mph - N/A   Mostly Cloudy
11:48 PM 66.2 °F 62.6 °F 88% 29.95 in 1.5 mi Variable 4.6 mph - 0.00 in Rain Heavy Rain
11:54 PM 64.9 °F 64.0 °F 97% 29.95 in 1.2 mi NNW 3.5 mph - N/A Rain Heavy Rain